Location: Ferchesar
(52.6477°N, 12.4298°E)
Time: 19:57:54
(UTC+01:00)

BUGSAT 1 - Pass Details

Date: 28 October 2021
Orbit: 558 x 601 km, 98.1° (Epoch: 28 November)

Event Time Altitude Azimuth Distance (km) Brightness Sun altitude
Rises 05:50:45 0° 19° (NNE) 2,761 ? -20.0°
Reaches altitude 10° 05:52:59 10° 26° (NNE) 1,863 ? -19.7°
Maximum altitude 05:56:50 44° 99° (E) 790 ? -19.1°
Drops below altitude 10° 06:00:42 10° 173° (S) 1,863 ? -18.5°
Sets 06:02:55 0° 180° (S) 2,762 ? -18.2°
